Terminal Aerodrome Forecast
Issued by NWS

Home | Current Version | Previous Version | Text Only | Print | Product List | Glossary On
Versions: 1 2 3 4 5 6 7 8 9 10 11 12 13 14 15 16 17 18 19 20 21 22 23 24 25 26 27 28 29 30 31 32 33 34 35 36
000
FTUS41 KBOX 242320
TAFACK
TAF
KACK 242320Z 2500/2524 04005KT P6SM SKC
     FM250300 32009KT P6SM SKC
     FM251000 33012G24KT P6SM SKC
     FM251500 34016KT P6SM FEW050
     FM252300 35010KT P6SM SKC=

USA.gov is the U.S. government's official web portal to all federal, state and local government web resources and services.